星链-37732(STARLINK-37732)

导读

暂未检索到NORAD编号69307、编号STARLINK-37732的卫星的公开专属信息。仅可确认星链(Starlink)是美国太空探索技术公司(SpaceX)主导的低轨宽带通信星座项目,常规单星多由猎鹰9号火箭批量发射,部署于500-600公里左右近地轨道,为全球提供高速互联网接入服务,部分早期试验卫星完成测试任务后已受控再入大气层陨落。

基本信息
目录编号:
69307
目录名称:
STARLINK-37732
国际标识:
2026-119M
轨道中心:
EARTH
卫星名称:
星链-37732
卫星全名:
星链-37732(STARLINK-37732)
卫星状态:
在轨 (已飞行98 天)
发射日期:
2026-05-30 UTC
国别 :
美国 (US)
星等 :
--
轨道信息
数据来源 国际轨道数据 AOE轨道数据
星历时间 2026-09-04T20:18:50+0800
19小时前
查看轨道信息
2026-09-03T23:00:00+0800
1天前
查看轨道信息
半长轴 6843.682km 6843.719km
偏心率 0.0001645 0.0002173
轨道倾角 97.284° 97.286°
近地点辐角 111.520° 115.248°
升交点赤经 272.481° 271.607°
平近点角 248.621° 25.505°
近地点 464.419km 464.094km
远地点 466.671km 467.07km
周期 93.906分钟 93.907分钟
每日圈数 15.334445 15.33432
详细信息
固有亮度:
5
最大亮度:
2.5
卫星平台:
Starlink V1.0
覆盖范围:
全球
运营商:
太空探索技术公司
运营商所在国:
美国
制造商(研发单位):
太空探索技术公司
制造商所在国:
美国
使用方式:
暂无
卫星简介
Starlink 计划是 SpaceX 推出的全球卫星互联网项目,通过发射低轨道卫星,为全球尤其是偏远地区提供高速、低延迟的互联网服务。自 2019 年起,Starlink 已部署数千颗卫星,旨在缩小全球数字鸿沟,推动互联网普及。该项目还为军事、航空等行业提供通信支持,带来广泛经济效益。
2D轨道图
3D轨道图
轨道高度分析图
轨道倾角分析图
轨道综合分析图
查看轨道综合分析图
交会数据列表
事件ID 空间交会对象 最接近时刻(TCA) 交会距离 交会风险概率(CRP) 交会风险指数(CRI) 操作
CDM_260905-143201-258606-930722
SL-3 R/B (12586)
2026-09-05T
14:32:07+0000
0.909 km
远距离
1.265113E-5 中风险 0.57
CDM_260905-045104-353406-930722
2026-09-05T
04:51:19+0000
2.102 km
极远距离
2.559574E-6 低风险 0.43
CDM_260906-185804-846606-930721
2026-09-06T
18:58:26+0000
2.751 km
极远距离
1.479511E-6 低风险 0.38
CDM_260905-090406-489106-930721
OBJECT R (64891)
2026-09-05T
09:04:53+0000
2.213 km
极远距离
1.420928E-6 低风险 0.38
CDM_260907-110805-866006-930721
2026-09-07T
11:08:45+0000
2.575 km
极远距离
1.391545E-6 低风险 0.38
CDM_260829-071705-901506-930721
2026-08-29T
07:17:53+0000
2.683 km
极远距离
1.324523E-6 低风险 0.37